Location: Carr Mill
(33.2054°N, 85.9439°W)
Time: 17:14:08
(UTC+00:00)

Envisat - Visible Passes

Search period start: 13 June 2021 00:00
Search period end: 23 June 2021 00:00
Orbit: 764 x 766 km, 98.1° (Epoch: 12 June)

Date Brightness Start Highest point End Pass type
(mag) Time Alt. Az. Time Alt. Az. Time Alt. Az.
16 Jun 5.6 10:02:01 10° NE 10:05:28 18° E 10:08:54 10° SE visible
19 Jun 5.8 09:51:21 10° ENE 09:53:54 14° E 09:56:27 10° ESE visible
22 Jun 6.3 09:42:04 10° E 09:42:20 10° E 09:42:35 10° E visible
